Flag for U.S.A. Weather past 2 weeks in Fort Lauderdale, Florida, U.S.A.

Now
70 °F

Passing clouds.


Feels Like: 65 °F
Forecast: 71 / 80 °F
Wind: 3 mph from Southeast

Location: Fort Lauderdale / Hollywood International Airport

Current Time: Dec 28, 2014 at 3:14:37 AM

Latest Report: Dec 28, 2014 at 2:53 AM


Visibility: 10 mi

Pressure: 30.12 "Hg

Humidity: 93%

Dew point: 68 °F

Location of Fort LauderdaleLocation

Historic Weather in Fort Lauderdale — Graph

°F

Fort Lauderdale temperature yesterday

Maximum temperature yesterday: 78 °F (at 11:53 AM)
Minimum temperature yesterday: 67 °F (at 5:53 AM)
Average temperature yesterday: 73 °F

Past Weeks' High & Low Weather Summary

 TemperatureHumidityPressure
High82 °F (Dec 24, 12:53 PM)100% (Dec 26, 7:53 PM)30.23 "Hg (Dec 26, 7:53 PM)
Low55 °F (Dec 13, 5:53 AM)39% (Dec 17, 12:53 PM)29.90 "Hg (Dec 24, 5:53 AM)
Average70 °F75%30.07 "Hg
* Reported Dec 13 1:53 AM — Dec 28 1:53 AM, Fort Lauderdale, Weather by CustomWeather, © 2014

Note: Actual official high and low records may vary slightly from our data, if they occured in-between our weather recording intervals... More about our weather records

Advertising

Fort Lauderdale weather history for previous 24 hours

 ConditionsComfort  
Time TempWeatherWind HumidityBarometerVisibility
1:53 AM
Dec 28
71 °FPassing clouds.6 mph87%30.13 "Hg10 mi
12:53 AM72 °FPassing clouds.6 mph84%30.14 "Hg10 mi
11:53 PM
Dec 27
73 °FPassing clouds.8 mph84%30.16 "Hg10 mi
10:53 PM73 °FPassing clouds.7 mph84%30.17 "Hg10 mi
9:53 PM74 °FPassing clouds.8 mph82%30.18 "Hg10 mi
8:53 PM73 °FPassing clouds.7 mph88%30.18 "Hg10 mi
7:53 PM74 °FPassing clouds.9 mph85%30.16 "Hg10 mi
6:53 PM74 °FPassing clouds.7 mph85%30.16 "Hg10 mi
5:53 PM74 °FPartly cloudy.6 mph85%30.15 "Hg10 mi
4:53 PM75 °FBroken clouds.7 mph82%30.15 "Hg10 mi
3:53 PM76 °FBroken clouds.7 mph80%30.14 "Hg10 mi
2:53 PM77 °FPartly sunny.8 mph71%30.14 "Hg10 mi
1:53 PM77 °FPartly sunny.8 mph69%30.16 "Hg10 mi
12:53 PM77 °FBroken clouds.8 mph79%30.17 "Hg10 mi
11:53 AM78 °FBroken clouds.9 mph76%30.21 "Hg10 mi
10:53 AM77 °FBroken clouds.8 mph82%30.23 "Hg10 mi
9:53 AM75 °FPartly sunny.7 mph90%30.23 "Hg10 mi
8:53 AM72 °FPartly sunny.No wind100%30.22 "Hg10 mi
7:53 AM68 °FPartly sunny.No wind100%30.20 "Hg8 mi
6:53 AM68 °FPassing clouds.No wind100%30.17 "Hg9 mi
5:53 AM67 °FPassing clouds.5 mph100%30.15 "Hg7 mi
4:53 AM68 °FFog.No wind100%30.14 "Hg6 mi
3:53 AM68 °FFog.No wind100%30.14 "Hg6 mi
Weather by CustomWeather, © 2014

See weather overviewHow to use our weather pages